User: anonymous   Login
Location: Camp Creek
(33.9000°N, 111.8167°W)
Time: 02:29:01
(UTC-07:00)
Language:

Cosmos 1656 - Orbit

View from above orbital plane
View from above orbital plane
View from above satellite
View from above satellite

Ground track
Ground track

The orbit data is extracted from the following two-line orbital elements,

1 15755U 85042A   16183.83487522 -.00000079  00000-0 -14300-4 0  9990
2 15755  71.1116  21.3755 0037154 237.2963 122.4579 14.20394480610942
Epoch (UTC): 01 July 2016 20:02:13
Eccentricity: 0.0037154
inclination: 71.1116°
perigee height: 797 km
apogee height: 851 km
right ascension of ascending node: 21.3755°
argument of perigee: 237.2963°
revolutions per day: 14.20394480
mean anomaly at epoch: 122.4579°
orbit number at epoch: 61094

The dashed part of the orbit path shows where the satellite is in the earth's shadow,  

DLR